Kicking Horse, Canada 16 day weather forecast

Slopes altitude range 1190 m - 2445m

Number of lifts: 5 Pistes: 70km

In some cases the lift and piste totals shown are for the ski domain (e.g. Three Valleys) rather than individual resort (e.g. Courchevel)

Overview

The 16 day weather forecast is fully updated 4 times every day.

    • Tue 17 JUL 2018
    • Tue 17
    • 13C 15C
    • Wed 18 JUL 2018
    • Wed 18
    • 13C 17C
    • Thu 19 JUL 2018
    • Thu 19
    • 11C 14C
    • Fri 20 JUL 2018
    • Fri 20
    • 11C 14C
    • Sat 21 JUL 2018
    • Sat 21
    • 8C 11C
    • Sun 22 JUL 2018
    • Sun 22
    • 5C 7C
    • Mon 23 JUL 2018
    • Mon 23
    • 6C 9C
    • Tue 24 JUL 2018
    • Tue 24
    • 7C 10C
    • Wed 25 JUL 2018
    • Wed 25
    • 7C 9C
    • Thu 26 JUL 2018
    • Thu 26
    • 7C 9C
    • Fri 27 JUL 2018
    • Fri 27
    • 8C 18C
    • Sat 28 JUL 2018
    • Sat 28
    • 8C 18C
    • Sun 29 JUL 2018
    • Sun 29
    • 10C 20C
    • Mon 30 JUL 2018
    • Mon 30
    • 10C 22C
    • Tue 31 JUL 2018
    • Tue 31
    • 10C 23C
    • Wed 01 AUG 2018
    • Wed 01
    • 7C 18C

Date:

Time Type 0°C level Temp Chill Snow Cloud Speed Gust Dir Press
3:00 4526m 21°C 21_4 0cm 0% 4mph 5mph 1014mB
6:00 4509m 15°C 15_2 0cm 0% 2mph 2mph 1017mB
9:00 4538m 13°C 13_1 0cm 0% 1mph 2mph 1017mB
12:00 4476m 15°C 15_3 0cm 0% 3mph 3mph 1018mB
15:00 4432m 21°C 21_1 0cm 0% 1mph 2mph 1017mB
18:00 4376m 27°C 27_3 0cm 0% 3mph 4mph 1014mB
21:00 4222m 26°C 26_5 0cm 0% 5mph 8mph 1012mB
0:00 4182m 26°C 26_6 0cm 4% 6mph 9mph 1011mB
3:00 4217m 21°C 21_2 0cm 4% 2mph 3mph 1011mB
6:00 4200m 16°C 16_2 0cm 18% 2mph 2mph 1013mB
9:00 4129m 15°C 15_3 0cm 99% 3mph 3mph 1014mB
12:00 4055m 17°C 17_2 0cm 98% 2mph 3mph 1013mB
15:00 3996m 19°C 19_2 0cm 90% 2mph 3mph 1013mB
18:00 3960m 24°C 24_5 0cm 61% 5mph 7mph 1012mB
21:00 3896m 24°C 24_7 0cm 1% 7mph 9mph 1011mB
0:00 3950m 24°C 24_9 0cm 3% 9mph 14mph 1011mB
3:00 3983m 19°C 19_4 0cm 1% 4mph 6mph 1013mB
6:00 3857m 13°C 13_2 0cm 1% 2mph 3mph 1016mB
9:00 3885m 12°C 12_2 0cm 0% 2mph 3mph 1017mB
12:00 3842m 14°C 14_2 0cm 0% 2mph 2mph 1017mB
15:00 3739m 19°C 19_2 0cm 16% 2mph 2mph 1017mB
18:00 3804m 24°C 24_4 0cm 31% 4mph 4mph 1015mB
21:00 3804m 23°C 23_7 0cm 3% 7mph 10mph 1014mB
0:00 3840m 23°C 23_8 0cm 8% 8mph 13mph 1013mB
3:00 3833m 19°C 19_4 0cm 2% 4mph 5mph 1014mB
6:00 3776m 14°C 14_3 0cm 19% 3mph 4mph 1015mB
9:00 3753m 12°C 12_3 0cm 42% 3mph 4mph 1015mB
12:00 3704m 14°C 14_3 0cm 21% 3mph 4mph 1015mB
15:00 3674m 17°C 17_4 0cm 0% 4mph 6mph 1014mB
18:00 3592m 22°C 22_6 0cm 0% 6mph 11mph 1012mB
21:00 3791m 22°C 22_7 0cm 25% 7mph 14mph 1010mB
0:00 3896m 22°C 22_7 0cm 24% 7mph 16mph 1008mB
3:00 3851m 18°C 18_5 0cm 2% 5mph 6mph 1009mB
6:00 3653m 11°C 11_5 0cm 1% 5mph 7mph 1012mB
9:00 3510m 9°C 9_3 0cm 0% 3mph 4mph 1013mB
12:00 3284m 11°C 11_2 0cm 0% 2mph 3mph 1014mB
15:00 3100m 14°C 14_5 0cm 0% 5mph 6mph 1014mB
18:00 2968m 17°C 17_7 0cm 3% 7mph 11mph 1013mB
21:00 3042m 17°C 17_9 0cm 11% 9mph 13mph 1013mB
0:00 3072m 17°C 17_8 0cm 11% 8mph 13mph 1014mB
3:00 3044m 13°C 13_5 0cm 24% 5mph 8mph 1016mB
6:00 2974m 7°C 7_3 0cm 15% 3mph 3mph 1018mB
9:00 2873m 6°C 6_3 0cm 1% 3mph 4mph 1019mB
12:00 2836m 7°C 7_3 0cm 39% 3mph 4mph 1020mB
15:00 2844m 10°C 10_4 0cm 89% 4mph 6mph 1019mB
18:00 2786m 14°C 14_6 0cm 87% 6mph 8mph 1019mB
21:00 2969m 14°C 14_6 0cm 72% 6mph 9mph 1019mB
0:00 3175m 14°C 14_8 0cm 69% 8mph 10mph 1020mB
3:00 3282m 14°C 14_5 0cm 28% 5mph 8mph 1022mB
6:00 3304m 9°C 9_4 0cm 16% 4mph 5mph 1024mB
9:00 3290m 7°C 7_4 0cm 0% 4mph 5mph 1025mB
12:00 3167m 9°C 9_4 0cm 1% 4mph 5mph 1025mB
15:00 3106m 13°C 13_3 0cm 1% 3mph 4mph 1024mB
18:00 3061m 18°C 18_4 0cm 4% 4mph 5mph 1023mB
21:00 3249m 18°C 18_5 0cm 37% 5mph 6mph 1023mB
0:00 3339m 18°C 18_5 0cm 29% 5mph 6mph 1022mB
3:00 3365m 15°C 15_3 0cm 3% 3mph 4mph 1023mB
6:00 3346m 10°C 10_4 0cm 3% 4mph 5mph 1025mB
9:00 3342m 8°C 8_4 0cm 2% 4mph 5mph 1025mB
12:00 3364m 10°C 10_3 0cm 1% 3mph 4mph 1025mB
15:00 3337m 9°C 9_3 0cm 0% 3mph 3mph 1024mB
18:00 3306m 14°C 14_2 0cm 0% 2mph 2mph 1022mB
21:00 3562m 14°C 14_1 0cm 4% 1mph 2mph 1021mB
0:00 3687m 14°C 14_2 0cm 30% 2mph 2mph 1020mB
3:00 3651m 14°C 14_1 0cm 98% 1mph 2mph 1021mB
6:00 3649m 9°C 9_4 0cm 65% 4mph 4mph 1023mB
9:00 3608m 8°C 8_3 0cm 1% 3mph 3mph 1023mB
12:00 3576m 9°C 9_2 0cm 1% 2mph 2mph 1023mB
15:00 3550m 12°C 12_1 0cm 1% 1mph 1mph 1022mB
18:00 3557m 15°C 15_2 0cm 16% 2mph 2mph 1021mB
21:00 3675m 15°C 15_2 0cm 64% 2mph 2mph 1019mB
0:00 3735m 15°C 15_4 0cm 80% 4mph 3mph 1019mB
3:00 3696m 13°C 13_5 0cm 100% 5mph 6mph 1021mB
6:00 3696m 9°C 9_5 0cm 79% 5mph 6mph 1023mB
9:00 3670m 8°C 8_5 0cm 17% 5mph 6mph 1024mB
12:00 3630m 9°C 9_5 0cm 9% 5mph 6mph 1024mB
15:00 3652m 11°C 11_4 0cm 0% 4mph 5mph 1023mB
18:00 3619m 16°C 16_3 0cm 0% 3mph 3mph 1021mB
21:00 3771m 16°C 16_5 0cm 9% 5mph 5mph 1019mB
0:00 3872m 16°C 16_5 0cm 38% 5mph 6mph 1018mB
Afternoon 0.0208333mm 0.25 3698m 18°C 18_4 0cm 18% 4mph 5mph 1018mB
Morning 0.00520833mm 0.0625 3917m 8°C 8_7 0cm 35% 7mph 9mph 1014mB
Afternoon 0.015625mm 0.1875 3919m 18°C 18_3 0cm 42% 3mph 3mph 1019mB
Morning 0mm 0 4144m 8°C 8_6 0cm 16% 6mph 8mph 1014mB
Afternoon 0mm 0 4172m 20°C 20_4 0cm 10% 4mph 5mph 1015mB
Morning 0mm 0 4319m 10°C 10_11 0cm 6% 11mph 12mph 1009mB
Afternoon 0mm 0 4167m 22°C 22_3 0cm 4% 3mph 4mph 1013mB
Morning 0mm 0 4333m 10°C 10_9 0cm 5% 9mph 12mph 1010mB
Afternoon 0mm 0 4180m 23°C 23_3 0cm 3% 3mph 4mph 1012mB
Morning 0.0520833mm 0 3909m 9°C 9_8 0cm 77% 8mph 14mph 1010mB
Afternoon 0.0104167mm 0 3669m 18°C 18_6 0cm 33% 6mph 7mph 1014mB
Morning 0.015625mm 0.1875 3652m 7°C 7_10 0cm 13% 10mph 12mph 1011mB

16 day outlook at a glance

Forecast issued: 17/07/2018 12:21:14

Chat

Your comments and questions. In a resort? Let us know what it's like!


Characters left 250

For terms and conditions see Readers Comments on the Cookie and privacy policy page.